, NM

(GMT )
Holloman AFB

Weather History for KHMN - June, 2012

Change the Weather History Date:

Sunday, June 3, 2012

  Actual Average Record
Temperature  
Mean Temperature 78 °F -  
Max Temperature 95 °F 89 °F 105 °F (2014)
Min Temperature 61 °F 59 °F 57 °F (2016)
Cooling Degree Days 13    
Growing Degree Days 28 (Base 50)    
Moisture  
Dew Point 15 °F    
Average Humidity 10    
Maximum Humidity 20    
Minimum Humidity 4    
Precipitation  
Precipitation 0.00 in - - ()
Sea Level Pressure  
Sea Level Pressure 29.67 in    
Wind  
Wind Speed 7 mph (ESE)    
Max Wind Speed 14 mph    
Max Gust Speed 18 mph    
Visibility 10 miles    
Events      
Averages and records for this station are not official NWS values.
T = Trace of Precipitation, MM = Missing Value Source: NWS Daily Summary

Daily Weather History Graph

Daily Weather History Graph

Search for Another Location

Airport or City:

Trip Planner

Search our weather history database for the weather conditions in past years. The results will help you decide how hot, cold, wet, or windy it might be!

Date:

Astronomy

Jun. 03, 2012 Rise Set
Actual Time 5:56 AM MDT 8:09 PM MDT
Civil Twilight 5:28 AM MDT 8:37 PM MDT
Nautical Twilight 4:53 AM MDT 9:12 PM MDT
Astronomical Twilight 4:16 AM MDT 9:49 PM MDT
Moon 7:38 PM MDT (6/3) 5:05 AM MDT (6/3)
Length of Visible Light 15h 09m
Length of Day
14h 12m
Waxing Gibbous, 99% of the Moon is Illuminated
Jun 3
Waxing Gibbous
Jun 4
Full
Jun 11
Last Quarter
Jun 19
New
Jun 26
First Quarter

Hourly Weather History & Observations

Time (MDT) Temp. Dew Point Humidity Pressure Visibility Wind Dir Wind Speed Gust Speed Precip Events Conditions
12:55 AM 72.1 °F 19.0 °F 13% 29.64 in 10.0 mi ENE 9.2 mph - N/A   Clear
1:55 AM 68.9 °F 19.8 °F 15% 29.65 in 10.0 mi NE 6.9 mph - N/A   Clear
2:55 AM 64.9 °F 20.8 °F 19% 29.64 in 10.0 mi NNE 5.8 mph - N/A   Clear
3:55 AM 62.4 °F 19.9 °F 20% 29.65 in 10.0 mi NNE 9.2 mph - N/A   Clear
4:55 AM 61.5 °F 19.2 °F 20% 29.66 in 10.0 mi NNE 8.1 mph - N/A   Clear
5:55 AM 62.6 °F 17.4 °F 17% 29.68 in 10.0 mi NE 9.2 mph - N/A   Clear
6:55 AM 61.5 °F 19.4 °F 20% 29.70 in 10.0 mi NNE 4.6 mph - N/A   Clear
7:55 AM 71.1 °F 21.6 °F 15% 29.72 in 10.0 mi East 3.5 mph - N/A   Clear
8:55 AM 76.3 °F 22.3 °F 13% 29.73 in 10.0 mi South 4.6 mph - N/A   Clear
9:55 AM 85.3 °F 18.1 °F 8% 29.71 in 10.0 mi Calm Calm - N/A   Clear
10:55 AM 89.1 °F 14.2 °F 6% 29.71 in 10.0 mi Calm Calm - N/A   Clear
11:55 AM 91.2 °F 16.0 °F 6% 29.73 in 10.0 mi West 6.9 mph - N/A   Clear
12:55 PM 91.6 °F 16.2 °F 6% 29.71 in 10.0 mi NNW 10.4 mph - N/A   Scattered Clouds
1:55 PM 94.3 °F 14.0 °F 5% 29.69 in 10.0 mi SSW 8.1 mph 18.4 mph N/A   Partly Cloudy
2:55 PM 95.0 °F 11.5 °F 5% 29.67 in 10.0 mi Calm Calm - N/A   Clear
3:55 PM 94.8 °F 9.3 °F 4% 29.66 in 10.0 mi West 6.9 mph 17.3 mph N/A   Clear
4:55 PM 94.8 °F 4.3 °F 4% 29.64 in 10.0 mi WSW 13.8 mph - N/A   Clear
5:55 PM 94.6 °F 4.1 °F 4% 29.62 in 10.0 mi SSW 4.6 mph - N/A   Clear
6:55 PM 93.7 °F 8.6 °F 4% 29.64 in 9.0 mi SW 10.4 mph - N/A   Clear
7:55 PM 89.4 °F 14.5 °F 6% 29.63 in 10.0 mi SSW 4.6 mph - N/A   Clear
8:55 PM 86.0 °F 14.9 °F 7% 29.64 in 10.0 mi SSE 3.5 mph - N/A   Clear
9:55 PM 80.8 °F 11.7 °F 7% 29.66 in 10.0 mi SSE 5.8 mph - N/A   Clear
10:55 PM 76.5 °F 10.0 °F 8% 29.66 in 10.0 mi East 9.2 mph - N/A   Clear
11:55 PM 76.6 °F 10.2 °F 8% 29.66 in 10.0 mi Calm Calm - N/A   Clear